Location: Ch?enovice
(49.7164°N, 15.2160°E)
Time: 21:32:15
(UTC+00:00)

Cosmos 839 Rocket - Pass Details

Date: 23 May 2024
Orbit: 965 x 2088 km, 65.9° (Epoch: 20 June)

Event Time Altitude Azimuth Distance (km) Brightness Sun altitude
Rises 01:16:41 0° 321° (NW) 4,367 7.6 -13.0°
Reaches altitude 10° 01:19:45 10° 322° (NW) 3,240 6.9 -12.8°
Maximum altitude 01:27:16 89° 48° (NE) 1,082 4.2 -12.1°
Drops below altitude 10° 01:33:33 10° 143° (SE) 2,737 6.2 -11.4°
Sets 01:35:58 0° 144° (SE) 3,650 6.8 -11.2°
